Tracking 30995 objects as of 5-Jul-2025
HD Live streaming from Space Station
objects crossing your sky now

USA 358

Track USA 358 now!
10-day predictions


NORAD ID: 59818
Int'l Code: 2024-096E
Perigee: 582.8 km
Apogee: 585.6 km
Inclination: 70.0 °
Period: 96.2 minutes
Semi major axis: 6955 km
RCS: Unknown
Launch date: May 22, 2024
Source: United States (US)
Launch site: AIR FORCE WESTERN TEST RANGE (AFWTR)
Your satellite tracking list
FENGYUN 1C DEB
Track 1 satellite(s)




NASA's NSSDC Master Catalog

Two Line Element Set (TLE):
1 59818U 24096E   25143.04038914 0.00000000  00000-0  00000-0 0    09
2 59818  69.9900 227.6483 0002000 320.8954  39.1046 14.96714983    06
Source of the keplerian elements: McCants